Terminal Aerodrome Forecast
Issued by NWS State College, PA

Home | Current Version | Previous Version | Text Only | Print | Product List | Glossary On
Versions: 1 2 3 4 5 6 7 8 9 10 11 12 13 14 15 16 17 18 19 20 21 22 23 24 25 26 27 28 29 30 31 32 33 34 35 36 37 38 39 40 41 42 43 44 45 46 47 48 49 50
000
FTUS41 KCTP 191246 AAB
TAFMDT
TAF AMD
KMDT 191246Z 1913/2012 VRB03KT 6SM BR SCT010 OVC090
     FM191330 30017G27KT P6SM SCT012 BKN035 OVC090
     FM191900 31021G33KT P6SM BKN035
     FM200500 31018G30KT P6SM BKN050=

USA.gov is the U.S. government's official web portal to all federal, state and local government web resources and services.